QPF
0.08 0.08 0.09 0.09 0.09 0.10 0.10 0.10 0.10 0.11 0.12 0.11 0.09 0.08 0.08 0.07 0.07 0.06 0.06 0.06 0.05 0.04 0.05 0.04 0.05 0.05 0.04 0.04 0.05 0.05 0.05 0.04 0.03 0.02 0.02 0.02 0.01 0.02 0.02 0.02 0.02 0.02 0.01
0.05 0.07 0.08 0.09 0.09 0.09 0.09 0.09 0.10 0.10 0.11 0.09 0.10 0.12 0.09 0.09 0.09 0.07 0.07 0.07 0.06 0.06 0.06 0.05 0.05 0.04 0.04 0.04 0.05 0.05 0.05 0.05 0.04 0.03 0.05 0.06 0.04 0.04 0.03 0.03 0.03 0.02 0.03
0.05 0.06 0.09 0.11 0.12 0.11 0.11 0.12 0.11 0.09 0.08 0.09 0.10 0.11 0.11 0.12 0.10 0.08 0.06 0.05 0.05 0.05 0.06 0.05 0.05 0.05 0.05 0.06 0.06 0.05 0.05 0.05 0.06 0.06 0.07 0.07 0.06 0.05 0.05 0.04 0.04 0.04 0.02
0.05 0.05 0.07 0.09 0.12 0.15 0.15 0.14 0.13 0.10 0.09 0.09 0.09 0.10 0.10 0.11 0.11 0.09 0.08 0.06 0.05 0.04 0.05 0.06 0.06 0.06 0.07 0.07 0.07 0.07 0.09 0.09 0.09 0.08 0.08 0.09 0.07 0.05 0.05 0.05 0.04 0.04 0.03
0.06 0.06 0.05 0.06 0.08 0.12 0.15 0.14 0.14 0.12 0.10 0.09 0.10 0.11 0.10 0.10 0.09 0.09 0.09 0.10 0.10 0.10 0.10 0.09 0.09 0.10 0.09 0.08 0.07 0.09 0.09 0.09 0.10 0.10 0.10 0.10 0.08 0.07 0.07 0.05 0.05 0.05 0.04
0.06 0.06 0.07 0.09 0.08 0.08 0.09 0.10 0.12 0.12 0.12 0.12 0.11 0.09 0.08 0.06 0.08 0.11 0.11 0.13 0.14 0.13 0.12 0.11 0.09 0.08 0.07 0.06 0.06 0.07 0.07 0.08 0.10 0.11 0.10 0.10 0.10 0.09 0.08 0.07 0.07 0.06 0.06
0.05 0.06 0.08 0.10 0.09 0.08 0.06 0.06 0.07 0.10 0.12 0.11 0.10 0.09 0.08 0.08 0.09 0.09 0.09 0.10 0.11 0.11 0.11 0.11 0.09 0.07 0.08 0.07 0.09 0.08 0.07 0.07 0.07 0.07 0.09 0.10 0.10 0.10 0.08 0.07 0.06 0.07 0.06
0.05 0.05 0.06 0.08 0.10 0.09 0.07 0.07 0.07 0.08 0.10 0.10 0.10 0.09 0.09 0.09 0.08 0.07 0.08 0.09 0.11 0.12 0.11 0.10 0.09 0.08 0.08 0.10 0.11 0.11 0.09 0.08 0.07 0.07 0.07 0.07 0.06 0.05 0.04 0.05 0.05 0.06 0.05
0.04 0.04 0.06 0.06 0.08 0.08 0.07 0.07 0.07 0.07 0.09 0.10 0.10 0.11 0.09 0.08 0.07 0.07 0.09 0.11 0.13 0.11 0.10 0.11 0.10 0.09 0.09 0.08 0.09 0.10 0.09 0.08 0.06 0.06 0.05 0.04 0.03 0.03 0.03 0.03 0.04 0.04 0.04
0.05 0.06 0.07 0.10 0.09 0.09 0.09 0.09 0.10 0.12 0.13 0.13 0.14 0.12 0.10 0.09 0.09 0.09 0.09 0.10 0.10 0.09 0.10 0.10 0.12 0.11 0.09 0.08 0.08 0.09 0.07 0.06 0.06 0.06 0.05 0.04 0.03 0.03 0.03 0.03 0.03 0.03 0.03
0.08 0.08 0.08 0.10 0.11 0.11 0.11 0.12 0.12 0.13 0.14 0.14 0.12 0.11 0.10 0.11 0.12 0.12 0.11 0.11 0.12 0.12 0.14 0.14 0.14 0.14 0.12 0.10 0.08 0.06 0.05 0.05 0.06 0.06 0.05 0.04 0.04 0.03 0.03 0.03 0.03 0.03 0.03
0.09 0.09 0.09 0.11 0.11 0.11 0.13 0.14 0.15 0.15 0.13 0.12 0.11 0.10 0.11 0.12 0.12 0.13 0.13 0.13 0.14 0.15 0.15 0.14 0.13 0.12 0.10 0.09 0.07 0.05 0.05 0.05 0.06 0.06 0.06 0.05 0.04 0.03 0.02 0.02 0.02 0.02 0.02
0.06 0.07 0.08 0.08 0.09 0.11 0.12 0.13 0.14 0.12 0.11 0.10 0.11 0.11 0.11 0.11 0.11 0.12 0.12 0.12 0.12 0.10 0.10 0.11 0.10 0.08 0.06 0.06 0.06 0.05 0.05 0.04 0.04 0.04 0.04 0.03 0.03 0.03 0.02 0.01 0.01 0.01 0.01
0.04 0.05 0.06 0.06 0.06 0.09 0.12 0.14 0.13 0.12 0.12 0.12 0.12 0.12 0.11 0.08 0.07 0.08 0.10 0.11 0.11 0.10 0.09 0.08 0.08 0.07 0.06 0.06 0.07 0.06 0.05 0.05 0.05 0.04 0.04 0.04 0.03 0.02 0.01 0.01 0.00 0.00 0.01
0.03 0.04 0.05 0.06 0.07 0.07 0.09 0.10 0.12 0.13 0.15 0.15 0.14 0.11 0.09 0.07 0.07 0.07 0.08 0.09 0.09 0.08 0.08 0.07 0.07 0.06 0.06 0.06 0.05 0.05 0.05 0.05 0.06 0.05 0.05 0.04 0.03 0.02 0.02 0.01 0.01 0.01 0.01
0.03 0.05 0.05 0.05 0.06 0.08 0.09 0.09 0.11 0.11 0.12 0.12 0.10 0.09 0.09 0.08 0.07 0.06 0.06 0.06 0.07 0.08 0.08 0.07 0.08 0.07 0.06 0.05 0.04 0.04 0.04 0.04 0.05 0.05 0.04 0.04 0.03 0.03 0.02 0.02 0.02 0.01 0.01
0.04 0.05 0.05 0.05 0.07 0.07 0.07 0.06 0.06 0.07 0.08 0.09 0.10 0.10 0.08 0.07 0.06 0.06 0.05 0.06 0.07 0.08 0.09 0.09 0.07 0.06 0.04 0.03 0.03 0.03 0.03 0.04 0.03 0.02 0.02 0.02 0.02 0.02 0.01 0.01 0.01 0.01 0.00
0.08 0.08 0.08 0.07 0.06 0.05 0.05 0.05 0.06 0.07 0.07 0.08 0.09 0.08 0.07 0.06 0.05 0.06 0.05 0.04 0.04 0.05 0.06 0.06 0.06 0.05 0.04 0.04 0.04 0.04 0.03 0.02 0.01 0.01 0.01 0.01 0.01 0.01 0.00 0.00 0.00 0.00 0.00
0.14 0.11 0.09 0.07 0.05 0.04 0.03 0.04 0.05 0.07 0.07 0.07 0.07 0.06 0.06 0.05 0.04 0.03 0.03 0.02 0.02 0.02 0.03 0.03 0.03 0.04 0.04 0.04 0.04 0.03 0.02 0.01 0.01 0.01 0.01 0.01 0.01 0.01 0.00 0.00 0.00 0.00 0.00
0.07 0.08 0.06 0.04 0.03 0.03 0.03 0.04 0.04 0.05 0.05 0.05 0.05 0.03 0.02 0.01 0.01 0.01 0.01 0.01 0.01 0.02 0.02 0.03 0.04 0.04 0.03 0.02 0.02 0.02 0.01 0.01 0.01 0.01 0.01 0.01 0.00 0.00 0.00 0.00 0.00 0.00 0.00
0.06 0.07 0.06 0.05 0.03 0.02 0.02 0.02 0.02 0.01 0.01 0.01 0.01 0.01 0.00 0.00 0.00 0.00 0.00 0.00 0.01 0.02 0.02 0.02 0.02 0.02 0.02 0.02 0.02 0.01 0.01 0.01 0.01 0.00 0.00 0.00 0.00 0.00 0.00 0.00 0.00 0.00 0.00
0.07 0.07 0.05 0.04 0.03 0.02 0.01 0.01 0.01 0.00 0.00 0.00 0.00 0.00 0.00 0.00 0.00 0.00 0.01 0.01 0.01 0.01 0.01 0.01 0.01 0.01 0.01 0.01 0.01 0.01 0.01 0.01 0.00 0.00 0.00 0.00 0.00 0.00 0.00 0.00 0.01 0.01 0.01
0.04 0.06 0.06 0.05 0.04 0.03 0.02 0.01 0.01 0.00 0.00 0.00 0.00 0.00 0.00 0.00 0.00 0.00 0.01 0.00 0.01 0.01 0.01 0.01 0.01 0.01 0.01 0.01 0.01 0.01 0.01 0.01 0.00 0.00 0.00 0.00 0.00 0.00 0.00 0.01 0.01 0.01 0.01
0.02 0.03 0.04 0.04 0.04 0.04 0.03 0.02 0.02 0.02 0.01 0.00 0.00 0.00 0.00 0.00 0.01 0.01 0.01 0.01 0.01 0.01 0.01 0.01 0.01 0.01 0.01 0.00 0.00 0.00 0.00 0.00 0.00 0.00 0.00 0.00 0.00 0.00 0.00 0.01 0.01 0.01 0.01
0.01 0.01 0.01 0.01 0.01 0.01 0.02 0.01 0.01 0.01 0.01 0.00 0.00 0.00 0.00 0.00 0.00 0.00 0.00 0.00 0.00 0.00 0.00 0.00 0.00 0.00 0.00 0.00 0.00 0.00 0.00 0.00 0.00 0.00 0.00 0.00 0.00 0.00 0.00 0.00 0.01 0.01 0.01
0.01 0.01 0.01 0.01 0.01 0.01 0.01 0.01 0.00 0.00 0.00 0.00 0.00 0.00 0.00 0.00 0.00 0.00 0.00 0.00 0.00 0.00 0.00 0.00 0.00 0.00 0.00 0.00 0.00 0.00 0.00 0.00 0.00 0.00 0.00 0.00 0.00 0.00 0.00 0.00 0.01 0.01 0.01
MSLP
1011.65 1012.08 1012.48 1012.84 1013.15 1013.41 1013.65 1013.88 1014.13 1014.41 1014.73 1015.07 1015.42 1015.77 1016.10 1016.39 1016.63 1016.85 1017.05 1017.24 1017.44 1017.66 1017.90 1018.14 1018.38 1018.59 1018.77 1018.89 1018.96 1018.98 1018.96 1018.90 1018.83 1018.75 1018.67 1018.60 1018.54 1018.50 1018.48 1018.49 1018.53 1018.60 1018.72
1011.50 1011.85 1012.19 1012.52 1012.84 1013.16 1013.47 1013.80 1014.14 1014.50 1014.87 1015.25 1015.62 1015.96 1016.27 1016.54 1016.78 1017.00 1017.21 1017.42 1017.64 1017.87 1018.11 1018.33 1018.54 1018.71 1018.84 1018.93 1018.98 1019.00 1019.00 1019.01 1019.02 1019.03 1019.05 1019.07 1019.08 1019.08 1019.06 1019.03 1019.00 1018.98 1018.98
1011.51 1011.81 1012.11 1012.42 1012.75 1013.11 1013.49 1013.90 1014.33 1014.77 1015.20 1015.61 1015.99 1016.32 1016.61 1016.87 1017.09 1017.31 1017.53 1017.75 1017.99 1018.24 1018.48 1018.71 1018.89 1019.04 1019.13 1019.19 1019.23 1019.25 1019.29 1019.35 1019.43 1019.54 1019.65 1019.76 1019.83 1019.86 1019.84 1019.78 1019.68 1019.56 1019.44
1011.70 1011.96 1012.23 1012.53 1012.88 1013.27 1013.71 1014.19 1014.70 1015.20 1015.68 1016.13 1016.51 1016.84 1017.12 1017.35 1017.56 1017.77 1017.99 1018.23 1018.50 1018.76 1019.02 1019.25 1019.43 1019.56 1019.64 1019.68 1019.70 1019.74 1019.80 1019.90 1020.04 1020.22 1020.41 1020.58 1020.71 1020.77 1020.75 1020.65 1020.49 1020.28 1020.05
1012.02 1012.28 1012.54 1012.84 1013.19 1013.61 1014.10 1014.64 1015.20 1015.76 1016.28 1016.75 1017.15 1017.47 1017.73 1017.94 1018.14 1018.35 1018.57 1018.83 1019.11 1019.40 1019.68 1019.93 1020.12 1020.25 1020.32 1020.36 1020.38 1020.41 1020.48 1020.60 1020.78 1021.00 1021.23 1021.44 1021.61 1021.69 1021.67 1021.54 1021.33 1021.05 1020.74
1012.41 1012.68 1012.95 1013.26 1013.63 1014.08 1014.60 1015.18 1015.78 1016.38 1016.93 1017.42 1017.83 1018.15 1018.40 1018.61 1018.80 1019.00 1019.23 1019.51 1019.81 1020.13 1020.44 1020.71 1020.91 1021.05 1021.13 1021.16 1021.17 1021.19 1021.25 1021.37 1021.54 1021.77 1022.01 1022.23 1022.40 1022.49 1022.46 1022.33 1022.09 1021.76 1021.40
1012.78 1013.10 1013.41 1013.74 1014.13 1014.60 1015.15 1015.75 1016.39 1017.01 1017.59 1018.10 1018.51 1018.84 1019.09 1019.30 1019.49 1019.70 1019.94 1020.23 1020.56 1020.91 1021.24 1021.53 1021.76 1021.91 1021.99 1022.01 1022.00 1021.99 1022.02 1022.10 1022.24 1022.43 1022.65 1022.85 1023.00 1023.08 1023.05 1022.90 1022.66 1022.33 1021.94
1013.11 1013.49 1013.85 1014.22 1014.65 1015.14 1015.71 1016.33 1016.99 1017.63 1018.23 1018.75 1019.18 1019.52 1019.78 1020.00 1020.20 1020.43 1020.69 1020.99 1021.34 1021.70 1022.05 1022.36 1022.59 1022.75 1022.82 1022.82 1022.78 1022.73 1022.71 1022.73 1022.81 1022.93 1023.08 1023.24 1023.35 1023.40 1023.36 1023.22 1022.98 1022.67 1022.31
1013.40 1013.85 1014.27 1014.70 1015.16 1015.69 1016.28 1016.91 1017.58 1018.23 1018.84 1019.38 1019.83 1020.19 1020.47 1020.71 1020.93 1021.17 1021.44 1021.75 1022.10 1022.47 1022.82 1023.13 1023.36 1023.50 1023.56 1023.53 1023.45 1023.35 1023.26 1023.21 1023.20 1023.24 1023.31 1023.39 1023.45 1023.46 1023.41 1023.28 1023.07 1022.81 1022.49
1013.67 1014.20 1014.70 1015.18 1015.70 1016.25 1016.86 1017.51 1018.18 1018.84 1019.46 1020.01 1020.48 1020.86 1021.16 1021.42 1021.66 1021.91 1022.19 1022.50 1022.84 1023.19 1023.52 1023.80 1024.01 1024.13 1024.15 1024.09 1023.97 1023.81 1023.65 1023.52 1023.43 1023.38 1023.36 1023.37 1023.37 1023.34 1023.27 1023.15 1022.98 1022.77 1022.52
1014.00 1014.61 1015.17 1015.72 1016.28 1016.87 1017.50 1018.15 1018.83 1019.49 1020.11 1020.66 1021.14 1021.53 1021.86 1022.13 1022.39 1022.64 1022.91 1023.20 1023.51 1023.82 1024.11 1024.35 1024.51 1024.59 1024.57 1024.47 1024.31 1024.11 1023.89 1023.70 1023.53 1023.41 1023.31 1023.25 1023.19 1023.12 1023.04 1022.93 1022.79 1022.63 1022.46
1014.44 1015.11 1015.73 1016.34 1016.94 1017.55 1018.19 1018.85 1019.52 1020.17 1020.78 1021.33 1021.81 1022.21 1022.55 1022.83 1023.08 1023.32 1023.57 1023.82 1024.08 1024.33 1024.55 1024.73 1024.83 1024.86 1024.80 1024.67 1024.48 1024.25 1024.01 1023.78 1023.57 1023.39 1023.25 1023.13 1023.03 1022.93 1022.83 1022.73 1022.61 1022.50 1022.38
1015.02 1015.73 1016.40 1017.04 1017.67 1018.31 1018.95 1019.60 1020.24 1020.87 1021.46 1022.00 1022.47 1022.87 1023.20 1023.48 1023.72 1023.93 1024.13 1024.33 1024.51 1024.69 1024.83 1024.93 1024.97 1024.95 1024.86 1024.71 1024.51 1024.29 1024.05 1023.82 1023.60 1023.41 1023.24 1023.09 1022.96 1022.84 1022.73 1022.62 1022.52 1022.43 1022.35
1015.73 1016.46 1017.15 1017.81 1018.45 1019.08 1019.71 1020.34 1020.96 1021.56 1022.12 1022.63 1023.08 1023.46 1023.78 1024.03 1024.24 1024.42 1024.56 1024.69 1024.80 1024.88 1024.94 1024.97 1024.95 1024.89 1024.78 1024.63 1024.46 1024.27 1024.07 1023.87 1023.69 1023.51 1023.35 1023.20 1023.05 1022.92 1022.79 1022.67 1022.57 1022.48 1022.42
1016.51 1017.22 1017.90 1018.56 1019.19 1019.81 1020.42 1021.02 1021.60 1022.16 1022.68 1023.16 1023.58 1023.93 1024.23 1024.46 1024.63 1024.76 1024.85 1024.91 1024.94 1024.94 1024.93 1024.89 1024.82 1024.74 1024.63 1024.51 1024.38 1024.25 1024.12 1023.99 1023.86 1023.73 1023.60 1023.46 1023.32 1023.17 1023.03 1022.89 1022.76 1022.66 1022.57
1017.25 1017.92 1018.58 1019.21 1019.82 1020.41 1020.99 1021.55 1022.09 1022.61 1023.10 1023.54 1023.93 1024.26 1024.53 1024.73 1024.87 1024.96 1025.00 1025.00 1024.97 1024.91 1024.84 1024.76 1024.67 1024.58 1024.50 1024.43 1024.37 1024.31 1024.26 1024.21 1024.15 1024.08 1023.99 1023.87 1023.73 1023.57 1023.40 1023.23 1023.07 1022.93 1022.80
1017.86 1018.48 1019.09 1019.69 1020.26 1020.82 1021.36 1021.89 1022.40 1022.89 1023.34 1023.76 1024.12 1024.43 1024.68 1024.86 1024.98 1025.04 1025.05 1025.01 1024.95 1024.86 1024.76 1024.66 1024.58 1024.52 1024.48 1024.47 1024.48 1024.51 1024.54 1024.56 1024.57 1024.55 1024.48 1024.38 1024.23 1024.05 1023.85 1023.64 1023.44 1023.24 1023.06
1018.27 1018.83 1019.39 1019.94 1020.48 1021.01 1021.53 1022.04 1022.52 1022.99 1023.42 1023.82 1024.18 1024.48 1024.72 1024.89 1025.00 1025.06 1025.05 1025.01 1024.94 1024.85 1024.76 1024.68 1024.63 1024.61 1024.63 1024.68 1024.76 1024.86 1024.96 1025.04 1025.09 1025.09 1025.04 1024.93 1024.76 1024.55 1024.31 1024.05 1023.79 1023.54 1023.31
1018.46 1018.96 1019.47 1019.99 1020.50 1021.01 1021.51 1022.01 1022.49 1022.95 1023.38 1023.78 1024.14 1024.44 1024.68 1024.86 1024.99 1025.05 1025.07 1025.04 1024.99 1024.94 1024.89 1024.86 1024.86 1024.90 1024.98 1025.10 1025.23 1025.38 1025.52 1025.62 1025.68 1025.68 1025.61 1025.47 1025.26 1025.01 1024.72 1024.41 1024.10 1023.80 1023.51
1018.47 1018.92 1019.39 1019.87 1020.37 1020.88 1021.38 1021.88 1022.37 1022.85 1023.29 1023.70 1024.06 1024.37 1024.63 1024.83 1024.98 1025.07 1025.12 1025.14 1025.15 1025.15 1025.16 1025.20 1025.27 1025.38 1025.52 1025.69 1025.87 1026.04 1026.18 1026.28 1026.31 1026.27 1026.15 1025.95 1025.69 1025.38 1025.03 1024.67 1024.32 1023.98 1023.66
1018.38 1018.78 1019.22 1019.69 1020.19 1020.70 1021.22 1021.74 1022.25 1022.74 1023.20 1023.63 1024.00 1024.33 1024.60 1024.83 1025.00 1025.13 1025.23 1025.31 1025.38 1025.46 1025.55 1025.67 1025.82 1025.99 1026.19 1026.40 1026.60 1026.77 1026.89 1026.95 1026.93 1026.82 1026.63 1026.36 1026.02 1025.64 1025.24 1024.84 1024.45 1024.08 1023.74
1018.28 1018.65 1019.07 1019.54 1020.05 1020.58 1021.12 1021.67 1022.20 1022.71 1023.19 1023.62 1024.01 1024.34 1024.63 1024.86 1025.06 1025.23 1025.38 1025.52 1025.66 1025.81 1025.99 1026.19 1026.41 1026.65 1026.90 1027.13 1027.33 1027.49 1027.57 1027.58 1027.48 1027.29 1027.02 1026.66 1026.25 1025.81 1025.36 1024.92 1024.50 1024.13 1023.78
1018.27 1018.62 1019.03 1019.50 1020.02 1020.58 1021.14 1021.71 1022.26 1022.78 1023.26 1023.69 1024.07 1024.40 1024.68 1024.92 1025.13 1025.33 1025.51 1025.70 1025.90 1026.13 1026.38 1026.65 1026.94 1027.24 1027.53 1027.78 1027.98 1028.11 1028.15 1028.10 1027.93 1027.67 1027.31 1026.88 1026.40 1025.91 1025.41 1024.94 1024.51 1024.13 1023.79
1018.39 1018.73 1019.15 1019.63 1020.16 1020.72 1021.30 1021.88 1022.43 1022.95 1023.41 1023.83 1024.18 1024.49 1024.75 1024.97 1025.18 1025.38 1025.58 1025.80 1026.05 1026.33 1026.64 1026.98 1027.33 1027.67 1027.99 1028.26 1028.46 1028.57 1028.58 1028.48 1028.26 1027.94 1027.52 1027.04 1026.51 1025.97 1025.45 1024.96 1024.52 1024.13 1023.80
1018.67 1019.00 1019.42 1019.90 1020.44 1021.00 1021.58 1022.14 1022.68 1023.17 1023.60 1023.98 1024.29 1024.56 1024.78 1024.97 1025.16 1025.34 1025.55 1025.79 1026.07 1026.38 1026.73 1027.11 1027.50 1027.88 1028.23 1028.52 1028.73 1028.84 1028.83 1028.71 1028.47 1028.11 1027.67 1027.16 1026.61 1026.05 1025.51 1025.01 1024.56 1024.16 1023.83
1019.05 1019.39 1019.80 1020.28 1020.81 1021.36 1021.91 1022.45 1022.95 1023.39 1023.78 1024.10 1024.36 1024.57 1024.75 1024.90 1025.05 1025.22 1025.41 1025.65 1025.93 1026.26 1026.64 1027.04 1027.46 1027.87 1028.24 1028.55 1028.78 1028.91 1028.92 1028.80 1028.57 1028.23 1027.79 1027.28 1026.74 1026.18 1025.63 1025.12 1024.65 1024.24 1023.89
Thickness
5761 5758 5756 5754 5752 5750 5748 5747 5747 5746 5745 5744 5743 5742 5741 5740 5738 5736 5735 5735 5733 5732 5732 5731 5730 5729 5728 5729 5730 5729 5727 5725 5718 5722 5726 5728 5728 5725 5723 5722 5720 5719 5717
5762 5758 5755 5754 5752 5750 5748 5747 5746 5744 5743 5742 5740 5739 5738 5737 5736 5733 5731 5732 5730 5728 5728 5727 5726 5726 5724 5723 5723 5723 5722 5722 5718 5714 5717 5720 5720 5720 5719 5717 5716 5715 5714
5762 5758 5754 5752 5751 5749 5747 5746 5744 5742 5741 5740 5738 5736 5735 5734 5733 5732 5730 5728 5727 5726 5725 5723 5722 5721 5718 5718 5717 5717 5717 5717 5716 5712 5710 5713 5713 5714 5712 5710 5710 5709 5709
5761 5757 5753 5751 5749 5748 5746 5744 5742 5740 5738 5737 5736 5734 5732 5731 5730 5729 5726 5724 5723 5722 5721 5719 5717 5715 5713 5712 5712 5711 5710 5709 5707 5705 5704 5704 5703 5705 5703 5700 5699 5700 5700
5759 5755 5752 5750 5748 5746 5744 5741 5739 5737 5736 5734 5732 5729 5728 5727 5725 5724 5722 5720 5717 5715 5714 5713 5711 5709 5708 5707 5706 5704 5703 5701 5699 5697 5695 5693 5691 5691 5690 5690 5688 5689 5690
5755 5752 5750 5747 5745 5742 5740 5737 5735 5733 5731 5729 5727 5724 5722 5721 5720 5718 5716 5715 5712 5709 5706 5705 5704 5702 5700 5698 5697 5695 5694 5692 5689 5687 5685 5682 5680 5680 5679 5678 5676 5675 5674
5751 5749 5746 5743 5740 5738 5736 5733 5730 5728 5727 5724 5721 5719 5716 5713 5713 5711 5710 5708 5706 5703 5700 5697 5696 5696 5693 5690 5688 5686 5684 5682 5681 5679 5675 5672 5670 5669 5668 5667 5665 5663 5662
5747 5744 5742 5739 5735 5733 5730 5727 5724 5722 5720 5717 5714 5712 5709 5706 5705 5703 5702 5701 5698 5695 5692 5690 5687 5685 5683 5681 5679 5677 5674 5672 5671 5669 5666 5663 5660 5658 5657 5657 5655 5655 5655
5741 5738 5736 5734 5730 5727 5724 5721 5719 5715 5712 5709 5707 5704 5701 5698 5697 5696 5694 5693 5689 5685 5682 5680 5678 5675 5672 5671 5670 5667 5663 5661 5659 5657 5654 5651 5649 5647 5646 5646 5643 5641 5639
5735 5733 5731 5728 5725 5721 5718 5715 5712 5709 5705 5701 5698 5695 5693 5690 5688 5688 5686 5684 5680 5675 5671 5668 5665 5663 5661 5661 5659 5656 5652 5649 5648 5646 5643 5641 5638 5636 5633 5630 5627 5625 5623
5729 5727 5724 5721 5718 5715 5711 5708 5705 5701 5696 5692 5688 5684 5681 5679 5678 5676 5675 5674 5670 5665 5661 5656 5652 5651 5650 5648 5647 5644 5640 5637 5636 5634 5632 5629 5626 5623 5619 5616 5614 5612 5608
5719 5715 5713 5710 5708 5706 5702 5698 5695 5691 5687 5682 5678 5674 5669 5667 5665 5664 5662 5660 5658 5654 5648 5643 5640 5639 5637 5635 5633 5631 5629 5627 5624 5621 5618 5615 5612 5609 5606 5603 5601 5599 5597
5706 5703 5700 5698 5696 5693 5690 5687 5685 5682 5678 5673 5669 5664 5658 5655 5652 5650 5648 5646 5644 5641 5636 5632 5629 5627 5625 5623 5621 5619 5617 5614 5612 5608 5604 5601 5598 5596 5593 5591 5588 5586 5584
5694 5691 5688 5685 5682 5678 5676 5674 5671 5669 5666 5662 5658 5652 5647 5643 5640 5638 5635 5632 5630 5627 5624 5620 5618 5616 5614 5611 5609 5606 5603 5600 5597 5593 5590 5587 5584 5582 5579 5576 5574 5571 5569
5683 5680 5676 5672 5667 5661 5657 5653 5652 5649 5650 5649 5645 5641 5637 5629 5624 5623 5624 5620 5618 5615 5612 5611 5609 5605 5602 5599 5595 5592 5588 5585 5582 5578 5575 5571 5569 5566 5563 5560 5557 5554 5551
5672 5668 5664 5660 5655 5650 5645 5638 5632 5632 5632 5631 5628 5626 5619 5615 5613 5611 5610 5608 5605 5603 5602 5600 5596 5593 5589 5585 5582 5578 5573 5569 5565 5562 5559 5555 5552 5549 5546 5543 5540 5536 5533
5662 5658 5654 5650 5645 5641 5637 5632 5624 5618 5616 5614 5612 5610 5607 5604 5602 5600 5598 5595 5594 5592 5590 5586 5582 5578 5574 5571 5567 5563 5558 5554 5550 5547 5543 5540 5536 5533 5531 5527 5523 5519 5516
5650 5646 5643 5639 5636 5631 5627 5622 5618 5613 5607 5600 5596 5595 5594 5592 5590 5588 5586 5584 5582 5580 5576 5572 5568 5564 5560 5556 5552 5547 5543 5539 5535 5531 5528 5524 5521 5518 5515 5511 5508 5503 5500
5639 5636 5632 5629 5625 5621 5617 5613 5609 5604 5599 5593 5588 5584 5582 5580 5579 5577 5574 5573 5571 5567 5563 5558 5554 5550 5545 5541 5537 5533 5529 5524 5520 5517 5513 5509 5506 5503 5500 5497 5493 5490 5486
5628 5625 5622 5620 5616 5612 5608 5604 5600 5595 5591 5586 5582 5578 5574 5572 5570 5567 5564 5561 5558 5553 5549 5544 5539 5535 5530 5526 5522 5518 5514 5510 5506 5502 5498 5495 5492 5489 5486 5483 5480 5477 5474
5618 5615 5612 5610 5607 5604 5599 5595 5591 5586 5581 5577 5572 5568 5565 5564 5561 5557 5553 5548 5544 5540 5534 5530 5526 5521 5516 5511 5508 5504 5500 5495 5490 5487 5483 5481 5478 5476 5473 5471 5468 5465 5462
5610 5607 5605 5602 5598 5594 5590 5587 5583 5578 5573 5569 5564 5560 5555 5554 5551 5546 5540 5536 5531 5525 5521 5516 5512 5507 5502 5498 5493 5489 5484 5479 5475 5472 5469 5468 5466 5465 5462 5459 5456 5454 5452
5603 5600 5597 5593 5589 5584 5581 5578 5574 5570 5566 5561 5557 5552 5547 5543 5539 5534 5528 5523 5518 5513 5508 5504 5499 5494 5489 5484 5479 5474 5468 5464 5460 5458 5456 5455 5454 5453 5452 5449 5447 5445 5444
5596 5593 5589 5584 5581 5578 5573 5569 5565 5561 5556 5552 5547 5543 5538 5533 5528 5523 5518 5512 5507 5502 5497 5492 5487 5482 5477 5472 5466 5461 5456 5452 5449 5448 5445 5444 5444 5444 5443 5441 5440 5438 5436
5589 5586 5582 5577 5574 5570 5565 5561 5556 5552 5547 5543 5539 5534 5529 5524 5518 5513 5507 5502 5497 5492 5487 5482 5477 5472 5467 5461 5456 5451 5448 5445 5442 5439 5437 5437 5436 5436 5435 5434 5433 5431 5430
5582 5579 5575 5571 5567 5562 5557 5552 5547 5543 5538 5534 5529 5524 5519 5514 5509 5503 5498 5493 5488 5483 5478 5473 5469 5464 5459 5454 5449 5445 5442 5439 5436 5434 5432 5430 5431 5431 5428 5427 5427 5426 5424